User: anonymous   Login
Location: Kunchanapalle
(16.4623°N, 80.6176°E)
Time: 19:58:04
(UTC+00:00)
Language:

DELTA 2 R/B (1) - Orbit

View from above orbital plane
View from above orbital plane
View from above satellite
View from above satellite

Ground track
Ground track

The orbit data is extracted from the following two-line orbital elements,

1 27665U 03005C   20304.49252237 -.00000068  00000-0  70154-5 0  9994
2 27665  39.5767 320.2141 0008876 351.4776 137.4402 14.28535194927045
Epoch (UTC): 30 October 2020 11:49:13
Eccentricity: 0.0008876
inclination: 39.5767°
perigee height: 790 km
apogee height: 803 km
right ascension of ascending node: 320.2141°
argument of perigee: 351.4776°
revolutions per day: 14.28535194
mean anomaly at epoch: 137.4402°
orbit number at epoch: 92704

The dashed part of the orbit path shows where the satellite is in the earth's shadow,  

DLR